VLG7CX LEBB-LEZL

Flight info

Callsign VLG7CX
Flight time 1h 9m
Altitude 31000
Route AMTO5C AMTOS L14 NEA DCT NONTU DCT ORBIS DCT DISKO DCT TLD DCT DOPEN DCT MONTO DCT MOLIN DCT HIJ HIJ4E
Aircraft A319/M-SDE3FGHIRWY/LB1

Departure

Time 2026-05-08 15:15
Airport Bilbao Airport (LEBB)

Arrival

Time 2026-05-08 16:24
Airport Seville Airport (LEZL)
Time Latitude Longitude Altitude Speed Heading
2026-05-08 15:01 43.30451 -2.90681 132 ft 0 kts 26°
2026-05-08 15:06 43.30443 -2.90686 132 ft 4 kts 27°
2026-05-08 15:06 43.30419 -2.90705 132 ft 4 kts 35°
2026-05-08 15:07 43.30400 -2.90728 132 ft 4 kts 59°
2026-05-08 15:07 43.30395 -2.90756 132 ft 2 kts 116°
2026-05-08 15:07 43.30395 -2.90757 132 ft 0 kts 116°
2026-05-08 15:09 43.30386 -2.90732 132 ft 6 kts 117°
2026-05-08 15:10 43.30363 -2.90669 132 ft 8 kts 117°
2026-05-08 15:10 43.30332 -2.90601 132 ft 9 kts 137°
2026-05-08 15:10 43.30279 -2.90550 132 ft 10 kts 146°
2026-05-08 15:10 43.30216 -2.90524 132 ft 10 kts 200°
2026-05-08 15:11 43.30152 -2.90578 132 ft 11 kts 200°
2026-05-08 15:11 43.30098 -2.90520 132 ft 11 kts 114°
2026-05-08 15:11 43.30063 -2.90420 132 ft 12 kts 116°
2026-05-08 15:11 43.30023 -2.90316 132 ft 13 kts 117°
2026-05-08 15:12 43.29983 -2.90208 132 ft 13 kts 117°
2026-05-08 15:12 43.29940 -2.90089 132 ft 14 kts 116°
2026-05-08 15:12 43.29896 -2.89966 132 ft 15 kts 116°
2026-05-08 15:12 43.29850 -2.89843 132 ft 15 kts 117°
2026-05-08 15:13 43.29801 -2.89710 132 ft 16 kts 116°
2026-05-08 15:13 43.29768 -2.89621 132 ft 10 kts 117°
2026-05-08 15:13 43.29732 -2.89574 132 ft 7 kts 184°
2026-05-08 15:13 43.29694 -2.89607 132 ft 8 kts 224°
2026-05-08 15:14 43.29652 -2.89662 125 ft 11 kts 224°
2026-05-08 15:14 43.29634 -2.89766 126 ft 13 kts 294°
2026-05-08 15:14 43.29702 -2.89948 127 ft 50 kts 297°
2026-05-08 15:14 43.29974 -2.90693 125 ft 123 kts 297°
2026-05-08 15:15 43.30419 -2.91943 317 ft 159 kts 294°
2026-05-08 15:15 43.30904 -2.93312 1075 ft 158 kts 296°
2026-05-08 15:15 43.31230 -2.94192 1536 ft 157 kts 295°
2026-05-08 15:15 43.31819 -2.95783 2192 ft 172 kts 294°
2026-05-08 15:16 43.32511 -2.97254 2572 ft 198 kts 310°
2026-05-08 15:16 43.33526 -2.98672 2961 ft 220 kts 311°
2026-05-08 15:16 43.34682 -3.00173 3444 ft 241 kts 315°
2026-05-08 15:16 43.35962 -3.01808 4069 ft 259 kts 314°
2026-05-08 15:17 43.37304 -3.03543 4889 ft 271 kts 313°
2026-05-08 15:17 43.38422 -3.05622 5842 ft 272 kts 289°
2026-05-08 15:17 43.38813 -3.08121 6838 ft 267 kts 265°
2026-05-08 15:17 43.38420 -3.10588 7794 ft 266 kts 242°
2026-05-08 15:18 43.37311 -3.12613 8762 ft 267 kts 218°
2026-05-08 15:18 43.35719 -3.13962 9732 ft 269 kts 207°
2026-05-08 15:18 43.34126 -3.15136 10294 ft 285 kts 207°
2026-05-08 15:18 43.32305 -3.16481 10662 ft 307 kts 207°
2026-05-08 15:19 43.30397 -3.17896 11369 ft 315 kts 207°
2026-05-08 15:19 43.28449 -3.19341 12208 ft 320 kts 207°
2026-05-08 15:19 43.26484 -3.20802 13078 ft 324 kts 207°
2026-05-08 15:19 43.24488 -3.22290 13902 ft 328 kts 207°
2026-05-08 15:20 43.22472 -3.23796 14629 ft 332 kts 207°
2026-05-08 15:20 43.20438 -3.25316 15373 ft 335 kts 207°
2026-05-08 15:20 43.18374 -3.26851 16090 ft 339 kts 207°
2026-05-08 15:20 43.16291 -3.28398 16882 ft 341 kts 207°
2026-05-08 15:21 43.14196 -3.29952 17634 ft 344 kts 206°
2026-05-08 15:21 43.12081 -3.31521 18307 ft 348 kts 207°
2026-05-08 15:21 43.09972 -3.33086 18909 ft 352 kts 206°
2026-05-08 15:21 43.07809 -3.34688 19519 ft 356 kts 206°
2026-05-08 15:22 43.05622 -3.36305 20113 ft 360 kts 206°
2026-05-08 15:22 43.03405 -3.37940 20743 ft 363 kts 206°
2026-05-08 15:22 43.01307 -3.39487 21292 ft 367 kts 206°
2026-05-08 15:22 42.99042 -3.41157 21913 ft 371 kts 206°
2026-05-08 15:23 42.96761 -3.42835 22525 ft 374 kts 206°
2026-05-08 15:23 42.94458 -3.44531 23133 ft 378 kts 206°
2026-05-08 15:23 42.92131 -3.46245 23664 ft 382 kts 207°
2026-05-08 15:23 42.89786 -3.47972 24143 ft 385 kts 207°
2026-05-08 15:24 42.87424 -3.49708 24640 ft 387 kts 207°
2026-05-08 15:24 42.85048 -3.51454 25139 ft 390 kts 207°
2026-05-08 15:24 42.82655 -3.53212 25639 ft 392 kts 207°
2026-05-08 15:24 42.80247 -3.54979 26122 ft 394 kts 207°
2026-05-08 15:25 42.77799 -3.56772 26600 ft 396 kts 207°
2026-05-08 15:25 42.75396 -3.58528 27071 ft 398 kts 207°
2026-05-08 15:25 42.73747 -3.59732 27378 ft 399 kts 207°
2026-05-08 15:25 42.71290 -3.61524 27849 ft 402 kts 207°
2026-05-08 15:26 42.68821 -3.63320 28307 ft 404 kts 208°
2026-05-08 15:26 42.66333 -3.65128 28754 ft 406 kts 208°
2026-05-08 15:26 42.63834 -3.66946 29191 ft 409 kts 208°
2026-05-08 15:26 42.61324 -3.68774 29617 ft 411 kts 208°
2026-05-08 15:27 42.58802 -3.70612 30020 ft 413 kts 208°
2026-05-08 15:27 42.56264 -3.72461 30363 ft 415 kts 208°
2026-05-08 15:27 42.53708 -3.74316 30712 ft 416 kts 210°
2026-05-08 15:27 42.51194 -3.76137 30870 ft 413 kts 210°
2026-05-08 15:28 42.48698 -3.77937 30901 ft 397 kts 210°
2026-05-08 15:28 42.46292 -3.79670 30904 ft 387 kts 210°
2026-05-08 15:28 42.41573 -3.83077 30912 ft 383 kts 211°
2026-05-08 15:29 42.36885 -3.86475 30903 ft 382 kts 211°
2026-05-08 15:29 42.32198 -3.89847 30902 ft 381 kts 211°
2026-05-08 15:30 42.27504 -3.93213 30902 ft 379 kts 211°
2026-05-08 15:30 42.22845 -3.96564 30901 ft 379 kts 211°
2026-05-08 15:31 42.18190 -3.99903 30898 ft 379 kts 211°
2026-05-08 15:31 42.13521 -4.03242 30902 ft 387 kts 211°
2026-05-08 15:32 42.11109 -4.04969 30898 ft 398 kts 212°
2026-05-08 15:32 42.08632 -4.06741 30905 ft 407 kts 211°
2026-05-08 15:32 42.03537 -4.10177 30903 ft 415 kts 204°
2026-05-08 15:33 42.00719 -4.11129 30899 ft 422 kts 193°
2026-05-08 15:33 41.97778 -4.11488 30902 ft 425 kts 190°
2026-05-08 15:33 41.91891 -4.12148 30899 ft 425 kts 190°
2026-05-08 15:34 41.86024 -4.12816 30899 ft 422 kts 190°
2026-05-08 15:34 41.80173 -4.13490 30900 ft 422 kts 191°
2026-05-08 15:35 41.74326 -4.14153 30898 ft 421 kts 190°
2026-05-08 15:35 41.68486 -4.14817 30879 ft 421 kts 191°
2026-05-08 15:36 41.62656 -4.15482 30892 ft 420 kts 191°
2026-05-08 15:36 41.56828 -4.16136 30892 ft 420 kts 191°
2026-05-08 15:37 41.51000 -4.16789 30895 ft 420 kts 191°
2026-05-08 15:37 41.45191 -4.17448 30882 ft 419 kts 191°
2026-05-08 15:38 41.39569 -4.18074 30892 ft 419 kts 191°
2026-05-08 15:38 41.33764 -4.18723 30894 ft 419 kts 191°
2026-05-08 15:39 41.27958 -4.19376 30895 ft 418 kts 191°
2026-05-08 15:39 41.22159 -4.20024 30895 ft 418 kts 191°
2026-05-08 15:40 41.16375 -4.20670 30907 ft 417 kts 191°
2026-05-08 15:40 41.10587 -4.21311 30905 ft 417 kts 191°
2026-05-08 15:41 41.04805 -4.21954 30892 ft 417 kts 191°
2026-05-08 15:41 40.99000 -4.22596 30913 ft 416 kts 191°
2026-05-08 15:42 40.93243 -4.23234 30921 ft 415 kts 191°
2026-05-08 15:42 40.87565 -4.23868 30929 ft 414 kts 191°
2026-05-08 15:43 40.81842 -4.24505 30910 ft 414 kts 191°
2026-05-08 15:43 40.76107 -4.25136 30916 ft 413 kts 191°
2026-05-08 15:44 40.70380 -4.25764 30920 ft 413 kts 191°
2026-05-08 15:44 40.64654 -4.26398 30920 ft 413 kts 191°
2026-05-08 15:45 40.58927 -4.27026 30914 ft 413 kts 191°
2026-05-08 15:45 40.53209 -4.27659 30910 ft 412 kts 191°
2026-05-08 15:46 40.47492 -4.28272 30902 ft 412 kts 191°
2026-05-08 15:46 40.41775 -4.28879 30900 ft 412 kts 191°
2026-05-08 15:47 40.36064 -4.29502 30885 ft 412 kts 191°
2026-05-08 15:47 40.30360 -4.30133 30889 ft 411 kts 191°
2026-05-08 15:48 40.21821 -4.31060 30887 ft 410 kts 191°
2026-05-08 15:49 40.16130 -4.31670 30870 ft 410 kts 192°
2026-05-08 15:49 40.10408 -4.32293 30866 ft 410 kts 192°
2026-05-08 15:50 40.04715 -4.32913 30867 ft 410 kts 192°
2026-05-08 15:50 39.99030 -4.33525 30866 ft 410 kts 192°
2026-05-08 15:51 39.93379 -4.34326 30846 ft 407 kts 195°
2026-05-08 15:51 39.87819 -4.35571 30855 ft 405 kts 197°
2026-05-08 15:52 39.82279 -4.36892 30864 ft 404 kts 197°
2026-05-08 15:52 39.76735 -4.38138 30865 ft 405 kts 196°
2026-05-08 15:53 39.71173 -4.39322 30863 ft 404 kts 196°
2026-05-08 15:53 39.65629 -4.40487 30861 ft 403 kts 196°
2026-05-08 15:54 39.60096 -4.41663 30881 ft 403 kts 196°
2026-05-08 15:54 39.54573 -4.42840 30875 ft 401 kts 197°
2026-05-08 15:55 39.49052 -4.44011 30865 ft 402 kts 197°
2026-05-08 15:55 39.40777 -4.45757 30885 ft 401 kts 197°
2026-05-08 15:56 39.35349 -4.46903 30887 ft 401 kts 197°
2026-05-08 15:56 39.29848 -4.48069 30885 ft 400 kts 197°
2026-05-08 15:57 39.24322 -4.49262 30862 ft 398 kts 199°
2026-05-08 15:57 39.21725 -4.50336 30864 ft 388 kts 210°
2026-05-08 15:57 39.19408 -4.52029 30868 ft 381 kts 218°
2026-05-08 15:58 39.15730 -4.55177 30872 ft 381 kts 218°
2026-05-08 15:58 39.11311 -4.58955 30887 ft 381 kts 217°
2026-05-08 15:59 39.06888 -4.62719 30881 ft 381 kts 217°
2026-05-08 15:59 39.02472 -4.66475 30852 ft 380 kts 218°
2026-05-08 16:00 38.98060 -4.70218 30865 ft 379 kts 218°
2026-05-08 16:00 38.93662 -4.73938 30873 ft 378 kts 218°
2026-05-08 16:01 38.89275 -4.77656 30874 ft 378 kts 218°
2026-05-08 16:01 38.84862 -4.81398 30873 ft 377 kts 218°
2026-05-08 16:02 38.80475 -4.85096 30870 ft 377 kts 218°
2026-05-08 16:02 38.76094 -4.88784 30865 ft 376 kts 218°
2026-05-08 16:03 38.71728 -4.92457 30872 ft 375 kts 218°
2026-05-08 16:03 38.67370 -4.96116 30893 ft 374 kts 217°
2026-05-08 16:04 38.63021 -4.99755 30889 ft 373 kts 217°
2026-05-08 16:04 38.58678 -5.03390 30879 ft 373 kts 217°
2026-05-08 16:05 38.54331 -5.07016 30845 ft 373 kts 218°
2026-05-08 16:05 38.49836 -5.10327 30844 ft 380 kts 207°
2026-05-08 16:06 38.47307 -5.11360 30603 ft 378 kts 204°
2026-05-08 16:06 38.44807 -5.12337 29830 ft 376 kts 204°
2026-05-08 16:06 38.42293 -5.13318 28833 ft 378 kts 204°
2026-05-08 16:06 38.39787 -5.14292 28111 ft 374 kts 203°
2026-05-08 16:07 38.37310 -5.15255 27398 ft 371 kts 203°
2026-05-08 16:07 38.34851 -5.16216 26717 ft 368 kts 202°
2026-05-08 16:07 38.32416 -5.17169 26056 ft 365 kts 202°
2026-05-08 16:07 38.29997 -5.18117 25394 ft 362 kts 202°
2026-05-08 16:08 38.27593 -5.19061 24742 ft 360 kts 202°
2026-05-08 16:08 38.25213 -5.19994 24125 ft 358 kts 201°
2026-05-08 16:08 38.22841 -5.20921 23530 ft 355 kts 201°
2026-05-08 16:08 38.20492 -5.21840 22876 ft 354 kts 201°
2026-05-08 16:09 38.18145 -5.22754 22252 ft 351 kts 201°
2026-05-08 16:09 38.15819 -5.23658 21675 ft 349 kts 201°
2026-05-08 16:09 38.13497 -5.24560 21161 ft 347 kts 201°
2026-05-08 16:09 38.11268 -5.25425 20651 ft 345 kts 201°
2026-05-08 16:10 38.08980 -5.26310 20128 ft 343 kts 201°
2026-05-08 16:10 38.06705 -5.27189 19541 ft 340 kts 201°
2026-05-08 16:10 38.04450 -5.28058 19000 ft 338 kts 201°
2026-05-08 16:10 38.02206 -5.28927 18477 ft 336 kts 201°
2026-05-08 16:11 37.99985 -5.29787 17747 ft 333 kts 201°
2026-05-08 16:11 37.97770 -5.30702 16976 ft 329 kts 205°
2026-05-08 16:11 37.95709 -5.31795 16222 ft 326 kts 206°
2026-05-08 16:11 37.93610 -5.32965 15489 ft 324 kts 207°
2026-05-08 16:12 37.91600 -5.34072 15155 ft 312 kts 206°
2026-05-08 16:12 37.89610 -5.35130 14803 ft 303 kts 205°
2026-05-08 16:12 37.87673 -5.36148 14279 ft 299 kts 205°
2026-05-08 16:12 37.85769 -5.37146 13875 ft 293 kts 205°
2026-05-08 16:13 37.83909 -5.38122 13471 ft 287 kts 205°
2026-05-08 16:13 37.82109 -5.39068 13074 ft 280 kts 205°
2026-05-08 16:13 37.80308 -5.40017 12705 ft 275 kts 205°
2026-05-08 16:13 37.78550 -5.40944 12338 ft 274 kts 204°
2026-05-08 16:14 37.76796 -5.41869 11970 ft 272 kts 204°
2026-05-08 16:14 37.75050 -5.42789 11600 ft 272 kts 204°
2026-05-08 16:14 37.73305 -5.43710 11228 ft 272 kts 203°
2026-05-08 16:14 37.71593 -5.44612 10857 ft 271 kts 203°
2026-05-08 16:15 37.69825 -5.45546 10475 ft 271 kts 203°
2026-05-08 16:15 37.68093 -5.46461 10126 ft 270 kts 202°
2026-05-08 16:15 37.66359 -5.47374 10050 ft 271 kts 202°
2026-05-08 16:15 37.64627 -5.48284 9938 ft 271 kts 202°
2026-05-08 16:16 37.62880 -5.49202 9756 ft 272 kts 202°
2026-05-08 16:16 37.61104 -5.50134 9165 ft 277 kts 202°
2026-05-08 16:16 37.59344 -5.51058 8821 ft 272 kts 202°
2026-05-08 16:16 37.57604 -5.51973 8411 ft 270 kts 202°
2026-05-08 16:17 37.55875 -5.52882 7919 ft 270 kts 202°
2026-05-08 16:17 37.54720 -5.53486 7404 ft 271 kts 202°
2026-05-08 16:17 37.52373 -5.54716 6320 ft 275 kts 202°
2026-05-08 16:17 37.50594 -5.55647 5478 ft 277 kts 202°
2026-05-08 16:18 37.48812 -5.56578 4720 ft 276 kts 202°
2026-05-08 16:18 37.47048 -5.57500 3991 ft 274 kts 203°
2026-05-08 16:18 37.45314 -5.58415 3364 ft 266 kts 205°
2026-05-08 16:18 37.43786 -5.59669 2743 ft 262 kts 222°
2026-05-08 16:19 37.42649 -5.61435 2172 ft 257 kts 240°
2026-05-08 16:19 37.42028 -5.63444 2011 ft 236 kts 255°
2026-05-08 16:19 37.41844 -5.65395 2009 ft 218 kts 266°
2026-05-08 16:19 37.41842 -5.67295 2003 ft 216 kts 267°
2026-05-08 16:20 37.41842 -5.69125 1997 ft 196 kts 266°
2026-05-08 16:20 37.41840 -5.70743 2025 ft 178 kts 266°
2026-05-08 16:20 37.41837 -5.72254 2019 ft 167 kts 264°
2026-05-08 16:20 37.41835 -5.73690 2010 ft 157 kts 263°
2026-05-08 16:21 37.41832 -5.75027 1950 ft 153 kts 264°
2026-05-08 16:21 37.41827 -5.76389 1793 ft 154 kts 262°
2026-05-08 16:21 37.41824 -5.77737 1614 ft 153 kts 262°
2026-05-08 16:21 37.41824 -5.79001 1424 ft 136 kts 264°
2026-05-08 16:22 37.41822 -5.80139 1222 ft 127 kts 263°
2026-05-08 16:22 37.41818 -5.81224 1002 ft 123 kts 261°
2026-05-08 16:22 37.41811 -5.82292 964 ft 123 kts 262°
2026-05-08 16:22 37.41808 -5.83387 757 ft 125 kts 264°
2026-05-08 16:23 37.41807 -5.84457 572 ft 122 kts 263°
2026-05-08 16:23 37.41805 -5.85534 456 ft 125 kts 263°
2026-05-08 16:23 37.41798 -5.86636 278 ft 127 kts 265°
2026-05-08 16:23 37.41800 -5.87737 145 ft 125 kts 264°
2026-05-08 16:24 37.41791 -5.88704 105 ft 101 kts 269°
2026-05-08 16:24 37.41794 -5.89370 100 ft 52 kts 269°
2026-05-08 16:24 37.41795 -5.89674 98 ft 30 kts 272°
2026-05-08 16:24 37.41928 -5.89844 98 ft 30 kts 339°
2026-05-08 16:25 37.42027 -5.89897 95 ft 10 kts 337°
2026-05-08 16:25 37.42090 -5.89930 95 ft 10 kts 338°
2026-05-08 16:25 37.42149 -5.89902 94 ft 10 kts 45°
2026-05-08 16:25 37.42202 -5.89834 94 ft 11 kts 45°
2026-05-08 16:26 37.42259 -5.89790 94 ft 8 kts 345°
2026-05-08 16:26 37.42302 -5.89840 94 ft 0 kts 315°
2026-05-08 16:26 37.42304 -5.89843 95 ft 0 kts 313°